Time,TemperatureF,DewpointF,PressureIn,WindDirection,WindDirectionDegrees,WindSpeedMPH,WindSpeedGustMPH,Humidity,HourlyPrecipIn,Conditions,Clouds,dailyrainin,SoftwareType,DateUTC
2013-01-19 00:00:00,27.7,0.0,30.51,NW,315,0.0,0.0,0,0.00,,,0.00,Weather View 32 v70,2013-01-19 05:00:00,
2013-01-19 00:01:00,27.7,0.0,30.51,NW,315,0.0,0.0,0,0.00,,,0.00,Weather View 32 v70,2013-01-19 05:01:00,
2013-01-19 00:02:00,27.7,0.0,30.51,NW,315,0.0,0.0,0,0.00,,,0.00,Weather View 32 v70,2013-01-19 05:02:00,
2013-01-19 00:05:00,27.5,0.0,30.49,NW,315,0.0,0.0,0,0.00,,,0.00,Weather View 32 v70,2013-01-19 05:05:00,
2013-01-19 00:10:00,27.5,0.0,30.50,NW,315,0.0,0.0,0,0.00,,,0.00,Weather View 32 v70,2013-01-19 05:10:00,
2013-01-19 00:15:00,27.5,0.0,30.50,NW,315,0.0,0.0,0,0.00,,,0.00,Weather View 32 v70,2013-01-19 05:15:00,
2013-01-19 00:20:00,27.5,0.0,30.50,NW,315,0.0,0.0,0,0.00,,,0.00,Weather View 32 v70,2013-01-19 05:20:00,
2013-01-19 00:25:00,27.3,0.0,30.50,NW,315,0.0,0.0,0,0.00,,,0.00,Weather View 32 v70,2013-01-19 05:25:00,
2013-01-19 00:30:00,27.1,0.0,30.49,NW,315,0.0,0.0,0,0.00,,,0.00,Weather View 32 v70,2013-01-19 05:30:00,
2013-01-19 00:35:00,27.1,0.0,30.49,NW,315,0.0,0.0,0,0.00,,,0.00,Weather View 32 v70,2013-01-19 05:35:00,
2013-01-19 00:40:00,27.3,0.0,30.50,NW,315,0.0,0.0,0,0.00,,,0.00,Weather View 32 v70,2013-01-19 05:40:00,
2013-01-19 00:45:00,27.3,0.0,30.49,NW,315,0.0,0.0,0,0.00,,,0.00,Weather View 32 v70,2013-01-19 05:45:00,
2013-01-19 00:50:00,27.3,0.0,30.49,NW,315,0.0,0.0,0,0.00,,,0.00,Weather View 32 v70,2013-01-19 05:50:00,
2013-01-19 00:55:00,27.3,0.0,30.49,NW,315,0.0,0.0,0,0.00,,,0.00,Weather View 32 v70,2013-01-19 05:55:00,
2013-01-19 01:00:00,27.3,0.0,30.49,NW,315,0.0,0.0,0,0.00,,,0.00,Weather View 32 v70,2013-01-19 06:00:00,
2013-01-19 01:05:00,27.1,0.0,30.50,NW,315,0.0,0.0,0,0.00,,,0.00,Weather View 32 v70,2013-01-19 06:05:00,
2013-01-19 01:10:00,27.0,0.0,30.49,NW,315,0.0,0.0,0,0.00,,,0.00,Weather View 32 v70,2013-01-19 06:10:00,
2013-01-19 01:15:00,27.0,0.0,30.50,NW,315,0.0,0.0,0,0.00,,,0.00,Weather View 32 v70,2013-01-19 06:15:00,
2013-01-19 01:20:00,26.8,0.0,30.48,NW,315,0.0,0.0,0,0.00,,,0.00,Weather View 32 v70,2013-01-19 06:20:00,
2013-01-19 01:25:00,26.8,0.0,30.49,NW,315,0.0,0.0,0,0.00,,,0.00,Weather View 32 v70,2013-01-19 06:25:00,
2013-01-19 01:30:00,26.6,0.0,30.49,NW,315,0.0,0.0,0,0.00,,,0.00,Weather View 32 v70,2013-01-19 06:30:00,
2013-01-19 01:35:00,26.6,0.0,30.49,NW,315,0.0,0.0,0,0.00,,,0.00,Weather View 32 v70,2013-01-19 06:35:00,
2013-01-19 01:40:00,26.6,0.0,30.49,NW,315,0.0,0.0,0,0.00,,,0.00,Weather View 32 v70,2013-01-19 06:40:00,
2013-01-19 01:45:00,26.4,0.0,30.48,NW,315,0.0,0.0,0,0.00,,,0.00,Weather View 32 v70,2013-01-19 06:45:00,
2013-01-19 01:50:00,26.4,0.0,30.48,NW,315,0.0,0.0,0,0.00,,,0.00,Weather View 32 v70,2013-01-19 06:50:00,
2013-01-19 01:55:00,26.4,0.0,30.48,NW,315,0.0,0.0,0,0.00,,,0.00,Weather View 32 v70,2013-01-19 06:55:00,
2013-01-19 02:00:00,26.6,0.0,30.40,West,270,0.0,0.0,0,0.00,,,0.00,Weather View 32 v70,2013-01-19 07:00:00,
2013-01-19 02:05:00,26.8,0.0,30.41,West,270,0.0,0.0,0,0.00,,,0.00,Weather View 32 v70,2013-01-19 07:05:00,
2013-01-19 02:10:00,26.8,0.0,30.41,West,270,0.0,0.0,0,0.00,,,0.00,Weather View 32 v70,2013-01-19 07:10:00,
2013-01-19 02:15:00,27.0,0.0,30.41,West,270,0.0,0.0,0,0.00,,,0.00,Weather View 32 v70,2013-01-19 07:15:00,
2013-01-19 02:20:00,26.8,0.0,30.40,West,270,0.0,0.0,0,0.00,,,0.00,Weather View 32 v70,2013-01-19 07:20:00,
2013-01-19 02:25:00,26.8,0.0,30.40,West,270,0.0,0.0,0,0.00,,,0.00,Weather View 32 v70,2013-01-19 07:25:00,
2013-01-19 02:30:00,26.8,0.0,30.40,West,270,0.0,0.0,0,0.00,,,0.00,Weather View 32 v70,2013-01-19 07:30:00,
2013-01-19 02:35:00,26.4,0.0,30.40,West,270,0.0,0.0,0,0.00,,,0.00,Weather View 32 v70,2013-01-19 07:35:00,
2013-01-19 02:40:00,26.4,0.0,30.40,West,270,0.0,1.0,0,0.00,,,0.00,Weather View 32 v70,2013-01-19 07:40:00,
2013-01-19 02:45:00,26.6,0.0,30.43,West,270,0.0,1.0,0,0.00,,,0.00,Weather View 32 v70,2013-01-19 07:45:00,
2013-01-19 02:50:00,26.4,0.0,30.41,West,270,0.0,1.0,0,0.00,,,0.00,Weather View 32 v70,2013-01-19 07:50:00,
2013-01-19 02:55:00,26.6,0.0,30.43,West,270,1.0,2.0,0,0.00,,,0.00,Weather View 32 v70,2013-01-19 07:55:00,
2013-01-19 03:00:00,26.6,0.0,30.41,West,270,0.0,3.0,0,0.00,,,0.00,Weather View 32 v70,2013-01-19 08:00:00,
2013-01-19 03:05:00,26.4,0.0,30.41,West,270,0.0,3.0,0,0.00,,,0.00,Weather View 32 v70,2013-01-19 08:05:00,
2013-01-19 03:10:00,26.4,0.0,30.43,West,270,0.0,3.0,0,0.00,,,0.00,Weather View 32 v70,2013-01-19 08:10:00,
2013-01-19 03:15:00,26.6,0.0,30.43,North,0,1.0,3.0,0,0.00,,,0.00,Weather View 32 v70,2013-01-19 08:15:00,
2013-01-19 03:20:00,26.6,0.0,30.42,North,0,0.0,4.0,0,0.00,,,0.00,Weather View 32 v70,2013-01-19 08:20:00,
2013-01-19 03:25:00,26.8,0.0,30.42,West,270,0.0,4.0,0,0.00,,,0.00,Weather View 32 v70,2013-01-19 08:25:00,
2013-01-19 03:30:00,26.4,0.0,30.40,West,270,0.0,4.0,0,0.00,,,0.00,Weather View 32 v70,2013-01-19 08:30:00,
2013-01-19 03:35:00,26.8,0.0,30.42,West,270,0.0,4.0,0,0.00,,,0.00,Weather View 32 v70,2013-01-19 08:35:00,
2013-01-19 03:40:00,26.8,0.0,30.41,West,270,0.0,4.0,0,0.00,,,0.00,Weather View 32 v70,2013-01-19 08:40:00,
2013-01-19 03:45:00,27.0,0.0,30.42,West,270,0.0,4.0,0,0.00,,,0.00,Weather View 32 v70,2013-01-19 08:45:00,
2013-01-19 03:50:00,27.0,0.0,30.42,West,270,0.0,4.0,0,0.00,,,0.00,Weather View 32 v70,2013-01-19 08:50:00,
2013-01-19 03:55:00,27.1,0.0,30.42,West,270,0.0,4.0,0,0.00,,,0.00,Weather View 32 v70,2013-01-19 08:55:00,
2013-01-19 04:00:00,27.0,0.0,30.42,West,270,0.0,4.0,0,0.00,,,0.00,Weather View 32 v70,2013-01-19 09:00:00,
2013-01-19 04:05:00,27.0,0.0,30.40,West,270,0.0,4.0,0,0.00,,,0.00,Weather View 32 v70,2013-01-19 09:05:00,
2013-01-19 04:10:00,26.8,0.0,30.40,West,270,0.0,4.0,0,0.00,,,0.00,Weather View 32 v70,2013-01-19 09:10:00,
2013-01-19 04:15:00,27.0,0.0,30.42,West,270,0.0,4.0,0,0.00,,,0.00,Weather View 32 v70,2013-01-19 09:15:00,
2013-01-19 04:20:00,26.6,0.0,30.42,West,270,0.0,4.0,0,0.00,,,0.00,Weather View 32 v70,2013-01-19 09:20:00,
2013-01-19 04:25:00,26.4,0.0,30.42,West,270,1.0,3.0,0,0.00,,,0.00,Weather View 32 v70,2013-01-19 09:25:00,
2013-01-19 04:30:00,26.4,0.0,30.41,North,0,2.0,3.0,0,0.00,,,0.00,Weather View 32 v70,2013-01-19 09:30:00,
2013-01-19 04:35:00,26.2,0.0,30.42,West,270,0.0,3.0,0,0.00,,,0.00,Weather View 32 v70,2013-01-19 09:35:00,
2013-01-19 04:40:00,26.1,0.0,30.41,West,270,0.0,5.0,0,0.00,,,0.00,Weather View 32 v70,2013-01-19 09:40:00,
2013-01-19 04:45:00,26.1,0.0,30.41,West,270,0.0,5.0,0,0.00,,,0.00,Weather View 32 v70,2013-01-19 09:45:00,
2013-01-19 04:50:00,26.1,0.0,30.41,West,270,0.0,5.0,0,0.00,,,0.00,Weather View 32 v70,2013-01-19 09:50:00,
2013-01-19 04:55:00,25.9,0.0,30.39,West,270,0.0,5.0,0,0.00,,,0.00,Weather View 32 v70,2013-01-19 09:55:00,
2013-01-19 05:00:00,26.2,0.0,30.41,West,270,0.0,5.0,0,0.00,,,0.00,Weather View 32 v70,2013-01-19 10:00:00,
2013-01-19 05:05:00,26.4,0.0,30.41,West,270,0.0,5.0,0,0.00,,,0.00,Weather View 32 v70,2013-01-19 10:05:00,
2013-01-19 05:11:00,26.4,0.0,30.41,West,270,0.0,5.0,0,0.00,,,0.00,Weather View 32 v70,2013-01-19 10:11:00,
2013-01-19 05:16:00,26.4,0.0,30.40,West,270,0.0,5.0,0,0.00,,,0.00,Weather View 32 v70,2013-01-19 10:16:00,
2013-01-19 05:21:00,26.2,0.0,30.41,West,270,1.0,5.0,0,0.00,,,0.00,Weather View 32 v70,2013-01-19 10:21:00,
2013-01-19 05:26:00,25.9,0.0,30.41,West,270,0.0,5.0,0,0.00,,,0.00,Weather View 32 v70,2013-01-19 10:26:00,
2013-01-19 05:31:00,26.1,0.0,30.41,West,270,0.0,5.0,0,0.00,,,0.00,Weather View 32 v70,2013-01-19 10:31:00,
2013-01-19 05:36:00,26.1,0.0,30.41,West,270,0.0,5.0,0,0.00,,,0.00,Weather View 32 v70,2013-01-19 10:36:00,
2013-01-19 05:41:00,26.2,0.0,30.41,North,0,0.0,4.0,0,0.00,,,0.00,Weather View 32 v70,2013-01-19 10:41:00,
2013-01-19 05:46:00,26.2,0.0,30.41,West,270,0.0,4.0,0,0.00,,,0.00,Weather View 32 v70,2013-01-19 10:46:00,
2013-01-19 05:51:00,25.9,0.0,30.41,West,270,0.0,4.0,0,0.00,,,0.00,Weather View 32 v70,2013-01-19 10:51:00,
2013-01-19 05:56:00,25.9,0.0,30.40,West,270,0.0,4.0,0,0.00,,,0.00,Weather View 32 v70,2013-01-19 10:56:00,
2013-01-19 06:01:00,26.1,0.0,30.41,North,0,1.0,4.0,0,0.00,,,0.00,Weather View 32 v70,2013-01-19 11:01:00,
2013-01-19 06:06:00,25.9,0.0,30.40,West,270,0.0,4.0,0,0.00,,,0.00,Weather View 32 v70,2013-01-19 11:06:00,
2013-01-19 06:11:00,25.9,0.0,30.42,West,270,0.0,4.0,0,0.00,,,0.00,Weather View 32 v70,2013-01-19 11:11:00,
2013-01-19 07:47:00,25.9,0.0,30.39,West,270,0.0,2.0,0,0.00,,,0.00,Weather View 32 v70,2013-01-19 12:47:00,
2013-01-19 07:48:00,25.7,0.0,30.39,West,270,0.0,2.0,0,0.00,,,0.00,Weather View 32 v70,2013-01-19 12:48:00,
2013-01-19 07:50:00,25.9,0.0,30.39,West,270,0.0,2.0,0,0.00,,,0.00,Weather View 32 v70,2013-01-19 12:50:00,
2013-01-19 07:55:00,25.9,0.0,30.39,West,270,0.0,2.0,0,0.00,,,0.00,Weather View 32 v70,2013-01-19 12:55:00,
2013-01-19 08:00:00,25.9,0.0,30.39,West,270,0.0,2.0,0,0.00,,,0.00,Weather View 32 v70,2013-01-19 13:00:00,
2013-01-19 08:05:00,26.2,0.0,30.40,West,270,0.0,1.0,0,0.00,,,0.00,Weather View 32 v70,2013-01-19 13:05:00,
2013-01-19 08:10:00,26.6,0.0,30.41,West,270,0.0,2.0,0,0.00,,,0.00,Weather View 32 v70,2013-01-19 13:10:00,
2013-01-19 08:12:00,26.6,0.0,30.40,West,270,0.0,2.0,0,0.00,,,0.00,Weather View 32 v70,2013-01-19 13:12:00,
2013-01-19 08:17:00,27.0,0.0,30.41,West,270,0.0,2.0,0,0.00,,,0.00,Weather View 32 v70,2013-01-19 13:17:00,
2013-01-19 08:22:00,27.1,0.0,30.41,West,270,0.0,2.0,0,0.00,,,0.00,Weather View 32 v70,2013-01-19 13:22:00,
2013-01-19 08:27:00,27.5,0.0,30.41,West,270,0.0,2.0,0,0.00,,,0.00,Weather View 32 v70,2013-01-19 13:27:00,
2013-01-19 08:32:00,27.9,0.0,30.41,West,270,0.0,2.0,0,0.00,,,0.00,Weather View 32 v70,2013-01-19 13:32:00,
2013-01-19 08:37:00,28.9,0.0,30.41,West,270,0.0,2.0,0,0.00,,,0.00,Weather View 32 v70,2013-01-19 13:37:00,
2013-01-19 08:42:00,30.0,0.0,30.41,West,270,0.0,2.0,0,0.00,,,0.00,Weather View 32 v70,2013-01-19 13:42:00,
2013-01-19 08:47:00,30.7,0.0,30.42,West,270,1.0,5.0,0,0.00,,,0.00,Weather View 32 v70,2013-01-19 13:47:00,
2013-01-19 08:52:00,31.6,0.0,30.41,West,270,0.0,5.0,0,0.00,,,0.00,Weather View 32 v70,2013-01-19 13:52:00,
2013-01-19 08:57:00,32.4,0.0,30.40,West,270,0.0,5.0,0,0.00,,,0.00,Weather View 32 v70,2013-01-19 13:57:00,
2013-01-19 09:02:00,33.3,0.0,30.41,West,270,3.0,6.0,0,0.00,,,0.00,Weather View 32 v70,2013-01-19 14:02:00,
2013-01-19 09:07:00,33.8,0.0,30.43,West,270,2.0,6.0,0,0.00,,,0.00,Weather View 32 v70,2013-01-19 14:07:00,
2013-01-19 09:12:00,34.9,0.0,30.40,West,270,2.0,6.0,0,0.00,,,0.00,Weather View 32 v70,2013-01-19 14:12:00,
2013-01-19 09:17:00,35.6,0.0,30.41,West,270,1.0,7.0,0,0.00,,,0.00,Weather View 32 v70,2013-01-19 14:17:00,
2013-01-19 09:22:00,36.0,0.0,30.42,West,270,0.0,7.0,0,0.00,,,0.00,Weather View 32 v70,2013-01-19 14:22:00,
2013-01-19 09:27:00,36.3,0.0,30.40,West,270,0.0,7.0,0,0.00,,,0.00,Weather View 32 v70,2013-01-19 14:27:00,
2013-01-19 09:32:00,36.5,0.0,30.41,West,270,0.0,7.0,0,0.00,,,0.00,Weather View 32 v70,2013-01-19 14:32:00,
2013-01-19 09:37:00,36.7,0.0,30.44,West,270,2.0,7.0,0,0.00,,,0.00,Weather View 32 v70,2013-01-19 14:37:00,
2013-01-19 09:42:00,37.2,0.0,30.41,South,180,3.0,11.0,0,0.00,,,0.00,Weather View 32 v70,2013-01-19 14:42:00,
2013-01-19 09:47:00,37.9,0.0,30.41,West,270,1.0,11.0,0,0.00,,,0.00,Weather View 32 v70,2013-01-19 14:47:00,
2013-01-19 09:52:00,39.0,0.0,30.42,West,270,0.0,11.0,0,0.00,,,0.00,Weather View 32 v70,2013-01-19 14:52:00,
2013-01-19 09:57:00,40.5,0.0,30.43,North,0,0.0,11.0,0,0.00,,,0.00,Weather View 32 v70,2013-01-19 14:57:00,
2013-01-19 10:02:00,41.5,0.0,30.41,South,180,3.0,11.0,0,0.00,,,0.00,Weather View 32 v70,2013-01-19 15:02:00,
2013-01-19 10:07:00,42.8,0.0,30.40,North,0,2.0,11.0,0,0.00,,,0.00,Weather View 32 v70,2013-01-19 15:07:00,
2013-01-19 10:12:00,43.5,0.0,30.42,West,270,4.0,11.0,0,0.00,,,0.00,Weather View 32 v70,2013-01-19 15:12:00,
2013-01-19 10:17:00,44.1,0.0,30.41,South,180,4.0,11.0,0,0.01,,,0.01,Weather View 32 v70,2013-01-19 15:17:00,
2013-01-19 10:22:00,44.6,0.0,30.42,West,270,1.0,11.0,0,0.01,,,0.01,Weather View 32 v70,2013-01-19 15:22:00,
2013-01-19 10:27:00,45.1,0.0,30.40,WNW,293,4.0,11.0,0,0.02,,,0.02,Weather View 32 v70,2013-01-19 15:27:00,
2013-01-19 10:32:00,45.1,0.0,30.38,WNW,293,5.0,11.0,0,0.02,,,0.03,Weather View 32 v70,2013-01-19 15:32:00,
2013-01-19 10:38:00,45.7,0.0,30.40,WNW,293,2.0,11.0,0,0.03,,,0.03,Weather View 32 v70,2013-01-19 15:38:00,
2013-01-19 10:43:00,46.6,0.0,30.38,West,270,2.0,7.0,0,0.04,,,0.04,Weather View 32 v70,2013-01-19 15:43:00,
2013-01-19 10:48:00,47.1,0.0,30.37,West,270,2.0,7.0,0,0.05,,,0.05,Weather View 32 v70,2013-01-19 15:48:00,
2013-01-19 10:53:00,47.5,0.0,30.39,West,270,2.0,7.0,0,0.06,,,0.06,Weather View 32 v70,2013-01-19 15:53:00,
2013-01-19 10:58:00,47.8,0.0,30.36,North,0,0.0,7.0,0,0.07,,,0.07,Weather View 32 v70,2013-01-19 15:58:00,
2013-01-19 11:03:00,48.4,0.0,30.37,West,270,2.0,7.0,0,0.08,,,0.08,Weather View 32 v70,2013-01-19 16:03:00,
2013-01-19 11:08:00,48.6,0.0,30.41,West,270,1.0,7.0,0,0.09,,,0.09,Weather View 32 v70,2013-01-19 16:08:00,
2013-01-19 11:13:00,48.7,0.0,30.35,North,0,2.0,7.0,0,0.10,,,0.10,Weather View 32 v70,2013-01-19 16:13:00,
2013-01-19 11:18:00,49.5,0.0,30.37,North,0,3.0,7.0,0,0.10,,,0.11,Weather View 32 v70,2013-01-19 16:18:00,
2013-01-19 11:23:00,49.6,0.0,30.34,WNW,293,0.0,7.0,0,0.11,,,0.12,Weather View 32 v70,2013-01-19 16:23:00,
2013-01-19 11:28:00,49.8,0.0,30.35,West,270,0.0,7.0,0,0.10,,,0.12,Weather View 32 v70,2013-01-19 16:28:00,
2013-01-19 11:33:00,49.8,0.0,30.35,North,0,4.0,7.0,0,0.10,,,0.13,Weather View 32 v70,2013-01-19 16:33:00,
2013-01-19 11:38:00,49.6,0.0,30.34,South,180,2.0,7.0,0,0.10,,,0.14,Weather View 32 v70,2013-01-19 16:38:00,
2013-01-19 11:40:00,49.8,0.0,30.35,South,180,5.0,7.0,0,0.10,,,0.14,Weather View 32 v70,2013-01-19 16:40:00,
2013-01-19 12:39:00,52.2,0.0,30.26,West,270,0.0,5.0,0,0.10,,,0.24,Weather View 32 v70,2013-01-19 17:39:00,
2013-01-19 12:44:00,52.2,0.0,30.27,North,0,2.0,11.0,0,0.11,,,0.25,Weather View 32 v70,2013-01-19 17:44:00,
2013-01-19 12:49:00,52.2,0.0,30.27,SSE,158,7.0,11.0,0,0.10,,,0.25,Weather View 32 v70,2013-01-19 17:49:00,
2013-01-19 12:54:00,52.0,0.0,30.27,North,0,8.0,11.0,0,0.11,,,0.27,Weather View 32 v70,2013-01-19 17:54:00,
2013-01-19 12:59:00,52.3,0.0,30.27,West,270,4.0,11.0,0,0.11,,,0.28,Weather View 32 v70,2013-01-19 17:59:00,
2013-01-19 13:04:00,52.0,0.0,30.26,West,270,5.0,11.0,0,0.11,,,0.28,Weather View 32 v70,2013-01-19 18:04:00,
2013-01-19 13:09:00,52.2,0.0,30.30,WNW,293,0.0,11.0,0,0.11,,,0.29,Weather View 32 v70,2013-01-19 18:09:00,
2013-01-19 13:14:00,52.7,0.0,30.27,West,270,2.0,11.0,0,0.10,,,0.29,Weather View 32 v70,2013-01-19 18:14:00,
2013-01-19 13:19:00,52.7,0.0,30.23,WNW,293,0.0,11.0,0,0.10,,,0.30,Weather View 32 v70,2013-01-19 18:19:00,
2013-01-19 13:24:00,53.1,0.0,30.25,West,270,1.0,11.0,0,0.10,,,0.30,Weather View 32 v70,2013-01-19 18:24:00,
2013-01-19 13:29:00,53.1,0.0,30.26,West,270,3.0,11.0,0,0.09,,,0.30,Weather View 32 v70,2013-01-19 18:29:00,
2013-01-19 13:34:00,52.7,0.0,30.23,West,270,2.0,11.0,0,0.08,,,0.30,Weather View 32 v70,2013-01-19 18:34:00,
2013-01-19 13:39:00,52.7,0.0,30.25,West,270,4.0,11.0,0,0.06,,,0.30,Weather View 32 v70,2013-01-19 18:39:00,
2013-01-19 13:44:00,52.7,0.0,30.23,South,180,3.0,10.0,0,0.05,,,0.30,Weather View 32 v70,2013-01-19 18:44:00,
2013-01-19 13:49:00,53.1,0.0,30.22,SSE,158,1.0,10.0,0,0.04,,,0.30,Weather View 32 v70,2013-01-19 18:49:00,
2013-01-19 13:54:00,52.7,0.0,30.23,West,270,0.0,10.0,0,0.03,,,0.30,Weather View 32 v70,2013-01-19 18:54:00,
2013-01-19 13:59:00,52.7,0.0,30.23,WNW,293,2.0,10.0,0,0.02,,,0.30,Weather View 32 v70,2013-01-19 18:59:00,
2013-01-19 14:04:00,52.7,0.0,30.21,West,270,0.0,10.0,0,0.02,,,0.30,Weather View 32 v70,2013-01-19 19:04:00,
2013-01-19 14:09:00,52.9,0.0,30.22,West,270,2.0,10.0,0,0.01,,,0.30,Weather View 32 v70,2013-01-19 19:09:00,
2013-01-19 14:14:00,52.7,0.0,30.23,North,0,0.0,10.0,0,0.01,,,0.30,Weather View 32 v70,2013-01-19 19:14:00,
2013-01-19 14:19:00,52.7,0.0,30.21,South,180,3.0,10.0,0,0.00,,,0.30,Weather View 32 v70,2013-01-19 19:19:00,
2013-01-19 14:24:00,52.7,0.0,30.21,West,270,0.0,12.0,0,0.00,,,0.30,Weather View 32 v70,2013-01-19 19:24:00,
2013-01-19 14:29:00,52.5,0.0,30.24,WNW,293,4.0,12.0,0,0.00,,,0.30,Weather View 32 v70,2013-01-19 19:29:00,
2013-01-19 14:34:00,52.7,0.0,30.20,West,270,2.0,12.0,0,0.00,,,0.30,Weather View 32 v70,2013-01-19 19:34:00,
2013-01-19 14:39:00,52.2,0.0,30.20,South,180,3.0,12.0,0,0.00,,,0.30,Weather View 32 v70,2013-01-19 19:39:00,
2013-01-19 14:44:00,52.2,0.0,30.19,South,180,8.0,12.0,0,0.00,,,0.30,Weather View 32 v70,2013-01-19 19:44:00,
2013-01-19 14:49:00,52.0,0.0,30.19,North,0,0.0,12.0,0,0.00,,,0.30,Weather View 32 v70,2013-01-19 19:49:00,
2013-01-19 14:54:00,52.3,0.0,30.21,West,270,1.0,12.0,0,0.00,,,0.30,Weather View 32 v70,2013-01-19 19:54:00,
2013-01-19 14:59:00,52.3,0.0,30.19,West,270,2.0,12.0,0,0.00,,,0.30,Weather View 32 v70,2013-01-19 19:59:00,
2013-01-19 15:04:00,52.3,0.0,30.22,WNW,293,3.0,12.0,0,0.00,,,0.30,Weather View 32 v70,2013-01-19 20:04:00,
2013-01-19 15:09:00,52.3,0.0,30.19,North,0,4.0,12.0,0,0.00,,,0.30,Weather View 32 v70,2013-01-19 20:09:00,
2013-01-19 15:14:00,52.2,0.0,30.18,West,270,0.0,12.0,0,0.00,,,0.30,Weather View 32 v70,2013-01-19 20:14:00,
2013-01-19 15:19:00,52.0,0.0,30.18,North,0,2.0,12.0,0,0.00,,,0.30,Weather View 32 v70,2013-01-19 20:19:00,
2013-01-19 15:24:00,52.0,0.0,30.17,South,180,2.0,11.0,0,0.00,,,0.30,Weather View 32 v70,2013-01-19 20:24:00,
2013-01-19 15:29:00,52.0,0.0,30.18,West,270,3.0,11.0,0,0.00,,,0.30,Weather View 32 v70,2013-01-19 20:29:00,
2013-01-19 15:35:00,51.6,0.0,30.17,South,180,3.0,11.0,0,0.00,,,0.30,Weather View 32 v70,2013-01-19 20:35:00,
2013-01-19 15:40:00,51.6,0.0,30.17,SSE,158,3.0,11.0,0,0.00,,,0.30,Weather View 32 v70,2013-01-19 20:40:00,
2013-01-19 15:45:00,51.3,0.0,30.17,North,0,0.0,11.0,0,0.00,,,0.30,Weather View 32 v70,2013-01-19 20:45:00,
2013-01-19 15:50:00,50.7,0.0,30.18,South,180,2.0,10.0,0,0.00,,,0.30,Weather View 32 v70,2013-01-19 20:50:00,
2013-01-19 15:55:00,50.7,0.0,30.18,North,0,6.0,10.0,0,0.00,,,0.30,Weather View 32 v70,2013-01-19 20:55:00,
2013-01-19 16:00:00,50.4,0.0,30.17,North,0,2.0,10.0,0,0.00,,,0.30,Weather View 32 v70,2013-01-19 21:00:00,
2013-01-19 16:05:00,50.0,0.0,30.17,South,180,3.0,10.0,0,0.00,,,0.30,Weather View 32 v70,2013-01-19 21:05:00,
2013-01-19 16:10:00,49.6,0.0,30.17,South,180,2.0,10.0,0,0.00,,,0.30,Weather View 32 v70,2013-01-19 21:10:00,
2013-01-19 16:15:00,49.3,0.0,30.15,North,0,1.0,10.0,0,0.00,,,0.30,Weather View 32 v70,2013-01-19 21:15:00,
2013-01-19 16:20:00,49.1,0.0,30.16,South,180,4.0,10.0,0,0.00,,,0.30,Weather View 32 v70,2013-01-19 21:20:00,
2013-01-19 16:25:00,48.9,0.0,30.14,South,180,3.0,10.0,0,0.00,,,0.30,Weather View 32 v70,2013-01-19 21:25:00,
2013-01-19 16:30:00,48.7,0.0,30.15,North,0,4.0,10.0,0,0.00,,,0.30,Weather View 32 v70,2013-01-19 21:30:00,
2013-01-19 16:35:00,48.7,0.0,30.14,North,0,2.0,11.0,0,0.00,,,0.30,Weather View 32 v70,2013-01-19 21:35:00,
2013-01-19 16:41:00,48.2,0.0,30.15,SSE,158,2.0,11.0,0,0.00,,,0.30,Weather View 32 v70,2013-01-19 21:41:00,
2013-01-19 16:46:00,47.8,0.0,30.16,SSE,158,4.0,11.0,0,0.00,,,0.30,Weather View 32 v70,2013-01-19 21:46:00,
2013-01-19 16:51:00,47.8,0.0,30.15,North,0,2.0,11.0,0,0.00,,,0.30,Weather View 32 v70,2013-01-19 21:51:00,
2013-01-19 16:56:00,47.5,0.0,30.15,North,0,1.0,11.0,0,0.00,,,0.30,Weather View 32 v70,2013-01-19 21:56:00,
2013-01-19 17:01:00,47.1,0.0,30.15,West,270,2.0,11.0,0,0.00,,,0.30,Weather View 32 v70,2013-01-19 22:01:00,
2013-01-19 17:06:00,47.1,0.0,30.15,West,270,2.0,11.0,0,0.00,,,0.30,Weather View 32 v70,2013-01-19 22:06:00,
2013-01-19 17:11:00,46.8,0.0,30.15,South,180,5.0,11.0,0,0.00,,,0.30,Weather View 32 v70,2013-01-19 22:11:00,
2013-01-19 17:17:00,46.2,0.0,30.15,South,180,3.0,11.0,0,0.00,,,0.30,Weather View 32 v70,2013-01-19 22:17:00,
2013-01-19 17:22:00,45.7,0.0,30.16,West,270,0.0,11.0,0,0.00,,,0.30,Weather View 32 v70,2013-01-19 22:22:00,
2013-01-19 17:27:00,45.3,0.0,30.15,West,270,0.0,11.0,0,0.00,,,0.30,Weather View 32 v70,2013-01-19 22:27:00,
2013-01-19 17:32:00,44.6,0.0,30.15,West,270,0.0,9.0,0,0.00,,,0.30,Weather View 32 v70,2013-01-19 22:32:00,
2013-01-19 17:37:00,44.1,0.0,30.13,West,270,1.0,9.0,0,0.00,,,0.30,Weather View 32 v70,2013-01-19 22:37:00,
2013-01-19 17:42:00,43.9,0.0,30.14,West,270,0.0,9.0,0,0.00,,,0.30,Weather View 32 v70,2013-01-19 22:42:00,
2013-01-19 17:47:00,43.3,0.0,30.14,West,270,0.0,9.0,0,0.00,,,0.30,Weather View 32 v70,2013-01-19 22:47:00,
2013-01-19 17:52:00,42.6,0.0,30.13,West,270,0.0,9.0,0,0.00,,,0.30,Weather View 32 v70,2013-01-19 22:52:00,
2013-01-19 17:57:00,42.4,0.0,30.13,West,270,0.0,9.0,0,0.00,,,0.30,Weather View 32 v70,2013-01-19 22:57:00,
2013-01-19 18:02:00,42.1,0.0,30.13,West,270,0.0,9.0,0,0.00,,,0.30,Weather View 32 v70,2013-01-19 23:02:00,
2013-01-19 18:08:00,41.9,0.0,30.14,West,270,0.0,9.0,0,0.00,,,0.30,Weather View 32 v70,2013-01-19 23:08:00,
2013-01-19 18:13:00,41.4,0.0,30.15,West,270,0.0,6.0,0,0.00,,,0.30,Weather View 32 v70,2013-01-19 23:13:00,
2013-01-19 18:18:00,41.0,0.0,30.15,West,270,0.0,6.0,0,0.00,,,0.30,Weather View 32 v70,2013-01-19 23:18:00,
2013-01-19 18:23:00,40.8,0.0,30.14,West,270,0.0,4.0,0,0.00,,,0.30,Weather View 32 v70,2013-01-19 23:23:00,
2013-01-19 18:28:00,40.5,0.0,30.14,West,270,0.0,3.0,0,0.00,,,0.30,Weather View 32 v70,2013-01-19 23:28:00,
2013-01-19 18:33:00,40.3,0.0,30.15,West,270,0.0,3.0,0,0.00,,,0.30,Weather View 32 v70,2013-01-19 23:33:00,
2013-01-19 18:38:00,40.3,0.0,30.15,West,270,0.0,3.0,0,0.00,,,0.30,Weather View 32 v70,2013-01-19 23:38:00,
2013-01-19 18:43:00,40.3,0.0,30.14,West,270,0.0,3.0,0,0.00,,,0.30,Weather View 32 v70,2013-01-19 23:43:00,
2013-01-19 18:48:00,40.3,0.0,30.14,West,270,0.0,3.0,0,0.00,,,0.30,Weather View 32 v70,2013-01-19 23:48:00,
2013-01-19 18:53:00,39.9,0.0,30.13,West,270,0.0,3.0,0,0.00,,,0.30,Weather View 32 v70,2013-01-19 23:53:00,
2013-01-19 18:58:00,39.6,0.0,30.13,West,270,0.0,3.0,0,0.00,,,0.30,Weather View 32 v70,2013-01-19 23:58:00,
2013-01-19 19:03:00,39.6,0.0,30.14,North,0,2.0,3.0,0,0.00,,,0.30,Weather View 32 v70,2013-01-20 00:03:00,
2013-01-19 19:08:00,39.4,0.0,30.14,West,270,0.0,3.0,0,0.00,,,0.30,Weather View 32 v70,2013-01-20 00:08:00,
2013-01-19 19:13:00,39.4,0.0,30.15,West,270,0.0,3.0,0,0.00,,,0.30,Weather View 32 v70,2013-01-20 00:13:00,
2013-01-19 19:18:00,39.4,0.0,30.15,West,270,0.0,3.0,0,0.00,,,0.30,Weather View 32 v70,2013-01-20 00:18:00,
2013-01-19 19:23:00,39.0,0.0,30.13,West,270,0.0,3.0,0,0.00,,,0.30,Weather View 32 v70,2013-01-20 00:23:00,
2013-01-19 19:28:00,38.8,0.0,30.14,West,270,0.0,3.0,0,0.00,,,0.30,Weather View 32 v70,2013-01-20 00:28:00,
2013-01-19 19:33:00,38.5,0.0,30.15,West,270,0.0,3.0,0,0.00,,,0.30,Weather View 32 v70,2013-01-20 00:33:00,
2013-01-19 19:38:00,38.1,0.0,30.15,West,270,0.0,3.0,0,0.00,,,0.30,Weather View 32 v70,2013-01-20 00:38:00,
2013-01-19 19:43:00,37.9,0.0,30.15,West,270,0.0,3.0,0,0.00,,,0.30,Weather View 32 v70,2013-01-20 00:43:00,
2013-01-19 19:48:00,37.6,0.0,30.15,West,270,0.0,3.0,0,0.00,,,0.30,Weather View 32 v70,2013-01-20 00:48:00,
2013-01-19 19:53:00,37.4,0.0,30.15,West,270,0.0,3.0,0,0.00,,,0.30,Weather View 32 v70,2013-01-20 00:53:00,
2013-01-19 19:58:00,37.4,0.0,30.14,West,270,0.0,2.0,0,0.00,,,0.30,Weather View 32 v70,2013-01-20 00:58:00,
2013-01-19 20:03:00,37.4,0.0,30.15,West,270,1.0,3.0,0,0.00,,,0.30,Weather View 32 v70,2013-01-20 01:03:00,
2013-01-19 20:08:00,37.2,0.0,30.14,West,270,0.0,4.0,0,0.00,,,0.30,Weather View 32 v70,2013-01-20 01:08:00,
2013-01-19 20:13:00,36.9,0.0,30.12,West,270,0.0,4.0,0,0.00,,,0.30,Weather View 32 v70,2013-01-20 01:13:00,
2013-01-19 20:18:00,37.0,0.0,30.13,West,270,0.0,4.0,0,0.00,,,0.30,Weather View 32 v70,2013-01-20 01:18:00,
2013-01-19 20:23:00,37.0,0.0,30.12,West,270,0.0,4.0,0,0.00,,,0.30,Weather View 32 v70,2013-01-20 01:23:00,
2013-01-19 20:28:00,37.0,0.0,30.13,West,270,0.0,4.0,0,0.00,,,0.30,Weather View 32 v70,2013-01-20 01:28:00,
2013-01-19 20:33:00,36.9,0.0,30.12,West,270,0.0,4.0,0,0.00,,,0.30,Weather View 32 v70,2013-01-20 01:33:00,
2013-01-19 20:38:00,36.9,0.0,30.12,West,270,0.0,4.0,0,0.00,,,0.30,Weather View 32 v70,2013-01-20 01:38:00,
2013-01-19 20:43:00,36.9,0.0,30.12,West,270,0.0,4.0,0,0.00,,,0.30,Weather View 32 v70,2013-01-20 01:43:00,
2013-01-19 20:48:00,36.7,0.0,30.13,West,270,0.0,4.0,0,0.00,,,0.30,Weather View 32 v70,2013-01-20 01:48:00,
2013-01-19 20:53:00,36.7,0.0,30.11,West,270,0.0,4.0,0,0.00,,,0.30,Weather View 32 v70,2013-01-20 01:53:00,
2013-01-19 20:59:00,36.7,0.0,30.11,West,270,0.0,4.0,0,0.00,,,0.30,Weather View 32 v70,2013-01-20 01:59:00,
2013-01-19 21:04:00,36.3,0.0,30.12,West,270,0.0,4.0,0,0.00,,,0.30,Weather View 32 v70,2013-01-20 02:04:00,
2013-01-19 21:09:00,36.3,0.0,30.11,West,270,0.0,1.0,0,0.00,,,0.30,Weather View 32 v70,2013-01-20 02:09:00,
2013-01-19 21:14:00,36.0,0.0,30.11,West,270,0.0,0.0,0,0.00,,,0.30,Weather View 32 v70,2013-01-20 02:14:00,
2013-01-19 21:19:00,35.8,0.0,30.11,West,270,0.0,0.0,0,0.00,,,0.30,Weather View 32 v70,2013-01-20 02:19:00,
2013-01-19 21:24:00,35.6,0.0,30.10,West,270,0.0,0.0,0,0.00,,,0.30,Weather View 32 v70,2013-01-20 02:24:00,
2013-01-19 21:29:00,35.2,0.0,30.11,West,270,0.0,0.0,0,0.00,,,0.30,Weather View 32 v70,2013-01-20 02:29:00,
2013-01-19 21:34:00,35.1,0.0,30.11,West,270,0.0,1.0,0,0.00,,,0.30,Weather View 32 v70,2013-01-20 02:34:00,
2013-01-19 21:39:00,35.1,0.0,30.12,West,270,0.0,2.0,0,0.73,,,0.30,Weather View 32 v70,2013-01-20 02:39:00,
2013-01-19 21:44:00,35.1,0.0,30.11,North,0,2.0,2.0,0,0.00,,,0.30,Weather View 32 v70,2013-01-20 02:44:00,
2013-01-19 21:49:00,34.5,0.0,30.11,North,0,0.0,4.0,0,0.00,,,0.30,Weather View 32 v70,2013-01-20 02:49:00,
2013-01-19 21:54:00,34.3,0.0,30.11,West,270,0.0,4.0,0,0.00,,,0.30,Weather View 32 v70,2013-01-20 02:54:00,
2013-01-19 21:59:00,34.5,0.0,30.12,West,270,0.0,4.0,0,0.00,,,0.30,Weather View 32 v70,2013-01-20 02:59:00,